Wind_Speed
31 32 30 27 26 23 22 21 20 17 16 12 14 15 14 14 14 13 12 9 10 9 10 11 11 11 14 15 15 16 14 14 10 14 8 9 9 9 9 9 7 6 4
24 29 29 28 26 24 23 20 20 18 16 16 16 16 15 15 15 14 13 12 13 11 11 11 11 12 13 13 14 16 15 13 15 14 9 10 10 9 10 9 9 6 7
8 2 9 25 9 18 20 19 21 19 18 18 18 17 16 14 16 16 14 14 13 14 15 15 14 15 13 14 15 10 12 13 14 14 10 10 8 7 10 10 10 11 10
13 9 9 3 29 29 13 16 18 19 19 18 18 17 16 14 16 15 16 16 15 15 15 13 12 13 13 14 14 14 12 11 11 12 11 9 11 8 8 12 9 10 10
19 14 12 21 14 21 14 21 20 20 18 19 18 20 18 15 17 19 19 18 16 15 15 14 14 13 13 11 10 13 13 12 12 11 11 10 10 8 13 10 12 15 13
14 18 24 26 22 25 33 28 22 19 18 18 16 18 17 17 18 19 14 16 15 17 16 15 16 10 15 17 16 15 13 12 12 13 18 12 12 13 12 15 15 10 4
6 18 17 17 35 36 31 26 24 21 18 18 17 17 18 17 15 13 15 17 19 15 18 18 17 21 22 15 16 18 19 18 16 9 12 7 7 13 14 17 20 18 12
6 7 7 9 15 17 18 18 16 16 15 14 16 17 19 19 19 19 20 16 19 21 19 20 19 18 12 15 16 16 17 17 17 16 12 11 9 10 14 14 18 19 11
6 5 2 3 1 7 8 9 6 13 14 11 14 17 20 20 22 21 20 18 20 23 23 20 19 19 20 18 16 19 17 15 11 16 14 10 8 9 13 15 20 20 5
8 4 2 1 0 7 6 8 11 16 14 13 15 16 17 19 20 20 20 19 21 23 24 23 24 25 23 22 20 21 17 17 17 12 14 13 11 12 17 15 18 19 9
7 6 3 2 1 4 7 4 8 13 16 13 16 18 17 20 19 19 21 21 22 23 25 24 25 25 31 25 27 22 20 17 17 15 13 13 13 14 15 16 17 18 20
10 9 9 8 5 6 7 8 5 7 9 11 15 17 19 18 16 20 23 27 26 24 26 25 28 27 29 31 29 25 19 20 17 20 18 16 15 15 15 16 16 18 17
10 10 9 8 8 7 8 10 12 9 9 9 11 12 12 12 16 21 26 29 31 32 30 27 23 17 27 31 31 26 21 20 21 21 17 19 18 14 11 16 15 13 12
12 10 10 8 9 9 9 8 9 10 11 12 12 13 16 14 13 15 14 21 28 28 27 28 32 24 30 30 28 29 26 24 23 22 19 20 17 15 15 15 14 13 10
11 10 7 9 4 3 5 8 11 9 9 10 15 16 16 17 11 9 13 13 9 11 12 19 14 17 19 24 25 26 25 25 23 18 18 17 16 17 16 16 14 15 13
13 12 12 12 13 3 5 9 8 7 10 13 15 19 22 22 27 28 28 24 23 19 20 19 16 19 22 23 25 25 25 26 22 23 18 17 17 16 15 15 13 12 10
12 13 14 13 12 12 9 8 11 8 7 7 11 13 16 22 25 27 29 26 26 23 22 22 20 21 23 22 25 27 28 27 21 12 12 11 13 18 17 15 11 8 7
14 15 12 13 13 13 11 11 13 12 10 8 7 12 18 18 25 25 23 19 16 17 17 18 20 22 24 25 23 21 21 19 15 13 8 7 7 8 8 8 8 9 11
14 13 13 16 15 14 12 10 10 9 8 10 11 11 17 20 19 13 9 11 10 12 16 16 21 21 21 20 21 23 22 19 15 16 14 11 9 9 10 9 9 10 9
15 10 7 12 13 13 11 7 6 7 7 10 12 12 16 15 13 10 2 4 6 10 13 14 18 22 26 25 27 26 23 23 19 16 15 15 12 11 13 14 13 12 11
14 14 10 12 14 11 14 7 4 7 7 6 8 7 13 11 12 14 8 3 3 9 14 18 23 26 28 28 29 31 26 26 21 20 15 11 11 12 13 11 11 10 10
17 17 19 17 16 14 13 13 9 7 7 5 6 6 9 11 10 10 12 14 16 16 17 22 22 23 24 27 28 31 27 26 21 21 20 15 13 12 11 11 12 12 12
9 12 14 20 12 17 18 10 8 6 4 4 4 6 5 6 7 6 10 11 13 18 20 24 25 24 22 20 19 23 24 20 20 18 17 15 15 15 13 12 12 11 12
2 8 10 11 13 11 10 9 9 5 5 4 5 6 4 3 4 5 10 12 15 19 22 22 21 21 18 14 14 14 13 15 15 14 13 13 12 14 11 11 12 10 9
7 7 9 9 10 12 9 5 3 2 2 2 2 2 4 4 3 4 7 7 12 6 8 7 12 13 13 13 13 15 16 18 16 17 15 12 12 12 12 12 10 10 9
5 7 6 7 12 7 7 7 5 2 2 1 1 2 3 4 6 4 10 9 8 7 8 10 11 11 12 12 11 15 18 20 18 16 12 13 14 12 11 11 12 12 11
Wind_Direction
196 198 198 194 194 188 189 193 199 204 198 219 204 215 214 212 216 215 220 223 216 227 232 228 234 229 225 228 237 238 238 235 243 268 240 215 221 218 222 222 224 203 233
206 206 198 191 185 186 184 204 198 203 204 205 210 215 220 224 222 226 224 218 217 224 232 240 244 228 218 225 227 227 228 227 232 251 237 222 225 231 221 199 207 192 167
88 199 219 27 185 191 181 202 209 203 206 208 212 215 219 227 223 219 232 234 227 221 228 228 235 238 236 241 239 226 228 238 242 249 251 228 212 214 214 215 216 227 226
100 109 84 68 325 303 207 214 216 211 205 215 214 213 216 223 236 221 225 243 240 232 231 234 237 242 235 238 239 236 234 235 241 244 252 229 201 199 208 214 213 214 205
118 152 163 152 190 272 241 223 221 222 215 215 217 214 217 225 235 227 224 231 238 239 246 233 234 239 241 243 238 234 226 229 230 235 230 219 202 170 191 205 211 203 197
151 173 164 194 222 226 239 216 217 221 222 223 219 223 214 223 235 229 219 243 230 226 233 243 248 232 235 238 240 243 224 231 242 234 244 220 197 209 201 190 178 166 186
156 153 171 191 220 222 228 217 205 207 217 221 224 223 223 223 233 242 234 236 254 240 238 234 234 239 217 215 225 225 230 231 234 258 254 256 255 203 195 188 193 187 190
42 67 118 191 226 228 236 223 216 214 209 228 241 236 227 221 226 233 244 231 241 248 248 233 230 249 213 216 212 209 224 228 228 219 227 240 243 211 195 198 198 191 199
47 102 152 191 237 268 227 232 234 248 236 238 243 235 236 234 230 230 231 229 240 242 243 243 232 233 241 234 231 219 225 224 213 213 204 197 210 205 189 168 169 169 150
40 27 49 187 137 272 268 283 267 238 241 227 246 244 242 245 238 230 228 228 237 238 236 240 242 235 234 236 223 228 226 222 222 208 220 205 205 204 201 194 183 187 166
28 343 353 347 3 269 306 294 270 269 259 251 247 250 249 238 232 230 233 230 238 240 237 240 240 238 235 228 227 222 223 217 220 208 210 211 204 201 199 205 196 197 195
32 16 357 342 342 333 306 289 255 243 240 238 242 248 242 240 243 239 236 230 232 250 258 237 237 231 231 231 221 220 227 214 210 212 209 212 201 204 205 201 203 206 209
20 10 355 354 343 332 314 319 303 280 247 261 258 264 273 265 249 242 239 240 240 243 245 253 261 256 229 227 218 219 215 211 217 215 210 207 206 199 212 200 205 205 205
356 349 346 345 346 352 331 310 299 296 307 304 300 295 294 284 279 287 271 244 242 241 250 257 257 264 224 213 210 208 207 211 222 218 209 203 191 187 194 195 197 189 187
337 316 299 318 272 294 319 329 314 307 300 295 291 293 296 298 299 327 318 305 271 265 265 254 230 209 201 190 200 195 204 214 223 222 206 178 179 178 182 197 204 195 193
325 323 327 313 307 297 308 309 281 282 284 285 276 274 274 269 274 280 283 284 281 276 279 251 218 209 204 187 191 188 200 213 211 216 190 189 182 188 180 193 204 205 205
323 312 314 296 302 306 315 316 320 326 279 294 313 307 296 291 286 280 273 275 268 275 246 233 217 215 212 195 191 192 193 202 212 213 174 184 182 183 185 184 181 182 148
321 303 291 306 310 300 321 347 309 323 321 325 348 330 317 309 312 293 268 264 258 246 227 223 209 204 204 195 195 184 174 165 158 146 158 147 125 131 138 159 170 172 149
318 318 330 313 301 306 291 300 298 316 316 320 332 350 340 333 319 316 241 216 227 230 219 222 213 201 189 174 167 156 154 148 138 140 137 135 137 157 149 155 154 146 152
316 301 290 304 295 288 273 238 305 293 307 321 330 350 351 352 354 353 247 342 232 222 231 213 167 154 156 155 145 143 145 140 140 139 145 149 149 153 153 152 153 157 176
312 302 271 279 276 300 314 295 323 307 304 318 317 21 14 9 24 37 60 97 194 231 208 179 161 159 147 145 144 141 138 140 143 142 138 151 171 170 155 147 153 158 156
307 328 332 324 331 320 347 325 345 320 316 341 346 29 14 32 34 60 80 86 87 87 100 111 108 116 124 130 133 129 127 130 143 144 146 145 140 144 154 158 175 187 188
345 323 334 337 335 359 333 12 336 319 2 25 10 351 19 39 53 90 101 96 106 111 115 109 106 109 113 122 132 135 142 143 156 156 160 176 183 174 174 187 190 179 188
348 345 325 358 357 352 352 4 342 12 65 52 47 39 38 67 96 98 121 118 114 111 117 119 123 130 138 142 140 139 144 146 154 165 166 160 165 169 178 181 183 187 160
11 335 337 344 3 12 348 352 42 81 99 110 98 69 54 60 101 165 153 128 125 108 124 120 135 139 142 144 141 154 156 153 152 161 163 170 162 180 178 183 177 171 168
353 330 322 35 329 344 354 357 357 324 254 218 252 97 122 117 104 138 154 147 128 136 141 139 141 143 141 143 151 168 167 164 163 162 165 164 171 185 182 190 179 181 180
Height
713 718 722 728 733 737 743 746 748 753 757 761 766 769 769 772 772 772 772 772 775 778 779 779 780 781 783 784 787 789 790 791 792 792 791 792 794 795 796 797 799 801 801
711 713 714 718 724 731 737 748 747 751 754 759 761 764 765 768 771 772 770 768 770 773 775 775 776 777 779 781 782 784 786 787 788 788 788 789 792 794 794 795 797 799 800
709 712 710 684 723 740 733 743 748 749 750 755 758 760 761 763 766 768 769 768 767 769 769 771 773 774 775 776 777 779 782 782 784 784 784 786 788 790 792 793 794 796 798
711 714 723 712 702 746 737 741 747 747 747 751 754 757 755 758 763 764 766 766 765 766 766 766 768 770 771 773 775 775 777 779 779 781 781 782 785 788 790 791 793 795 797
711 711 715 719 730 747 732 743 741 745 745 746 750 752 751 754 757 761 761 763 762 763 764 763 763 766 768 769 771 772 773 773 773 774 777 780 782 784 785 788 791 793 795
705 709 705 711 721 724 735 734 733 737 742 745 744 748 747 748 751 758 757 758 759 760 761 761 761 761 763 765 766 768 770 770 770 771 772 767 772 779 781 783 786 791 794
707 706 709 711 726 724 729 730 726 729 735 739 741 740 743 744 745 752 755 756 758 757 757 757 758 756 755 759 762 764 766 766 766 767 767 768 768 771 774 777 780 784 787
710 705 705 718 724 725 726 725 727 729 730 734 736 736 739 740 740 745 749 751 753 754 753 753 752 753 754 755 757 759 761 762 761 762 764 766 766 767 769 771 775 779 784
712 716 718 719 724 728 725 727 726 732 730 728 730 731 734 735 735 738 741 744 746 749 749 747 747 749 749 751 753 754 755 756 758 760 757 760 763 765 768 769 773 778 781
721 723 724 725 722 725 724 723 726 732 729 723 726 727 728 730 730 731 734 737 737 739 741 741 741 742 744 746 747 749 751 753 755 757 759 756 760 762 765 767 768 774 777
726 725 725 726 722 724 722 721 722 725 723 719 722 725 725 728 727 725 728 729 730 731 732 732 733 735 738 738 742 745 744 748 751 754 756 758 757 760 763 765 765 769 772
724 726 726 725 723 721 722 724 721 723 723 724 724 724 721 720 717 720 721 722 725 727 724 723 724 727 730 733 735 738 741 744 746 749 751 752 754 758 759 762 764 766 767
727 726 726 725 723 721 719 716 714 710 711 715 715 713 711 709 710 710 712 712 716 720 720 717 716 721 722 725 728 733 738 741 742 743 743 746 748 752 756 759 761 762 767
725 723 724 723 723 721 718 715 712 710 710 709 711 711 708 706 707 706 706 706 709 713 713 713 714 717 715 718 722 727 732 734 736 738 737 742 744 747 753 758 760 761 764
729 727 724 721 720 720 718 716 714 711 712 711 713 712 708 706 704 704 704 704 708 708 707 707 707 709 711 711 717 721 726 728 730 734 737 739 742 744 746 754 756 758 760
733 726 722 721 716 716 716 713 711 710 708 710 710 709 708 705 703 701 701 700 703 702 704 705 703 704 705 707 711 714 720 724 727 729 732 736 738 743 743 750 754 755 758
733 730 726 721 715 712 710 709 709 707 706 706 705 704 701 700 699 696 697 696 697 698 697 698 697 700 702 702 704 709 713 717 724 724 728 734 736 739 740 747 751 753 758
728 725 720 716 713 710 706 706 710 706 705 703 701 701 699 695 694 687 687 688 688 690 690 691 690 694 698 698 699 703 710 715 720 724 730 733 736 738 741 747 751 754 757
723 719 719 719 714 709 707 707 706 706 703 702 697 698 697 693 688 683 682 682 683 685 687 687 687 689 693 695 698 703 707 713 717 724 729 735 739 742 745 748 750 753 757
717 716 718 716 712 707 700 702 702 704 701 700 699 698 696 692 686 682 682 683 683 683 685 687 684 686 688 694 697 701 707 714 720 726 731 735 740 743 746 748 751 753 757
720 715 713 709 701 698 698 697 699 701 702 702 702 700 698 695 690 688 687 685 684 684 684 685 683 686 687 693 698 703 709 714 724 727 730 736 740 744 747 749 751 752 755
718 712 709 703 699 696 696 697 699 702 703 702 702 700 699 697 696 694 694 690 687 688 687 684 687 689 690 695 701 702 710 717 725 728 730 737 741 744 747 750 751 753 756
720 718 713 710 706 703 702 699 703 703 702 704 704 704 702 702 700 699 696 698 697 695 697 694 694 698 703 707 710 710 716 720 726 730 732 736 740 742 745 748 750 753 754
718 718 714 711 707 706 706 706 705 705 704 705 705 704 704 703 701 701 701 701 701 701 702 702 706 707 710 711 714 716 721 724 728 731 734 736 740 742 745 748 749 751 753
713 714 711 709 708 707 708 707 708 707 706 705 706 706 706 705 703 704 704 706 705 709 709 711 711 714 715 717 719 721 723 725 730 733 736 739 741 744 747 748 748 751 755
713 712 708 709 708 705 706 706 706 706 706 706 706 706 707 707 705 705 707 709 710 712 713 712 716 716 717 719 721 724 725 729 731 735 737 739 742 745 747 749 750 751 754